TimeCST,TemperatureF,Dew PointF,Humidity,Sea Level PressureIn,VisibilityMPH,Wind Direction,Wind SpeedMPH,Gust SpeedMPH,PrecipitationIn,Events,Conditions,WindDirDegrees,DateUTC
12:15 AM,16.5,12.2,83,30.09,10.0,Calm,Calm,-,N/A,,Overcast,0,2014-01-10 06:15:00
12:35 AM,18.3,13.6,82,30.08,10.0,Calm,Calm,-,N/A,,Overcast,0,2014-01-10 06:35:00
12:55 AM,19.9,16.3,86,30.07,10.0,SSW,3.5,-,N/A,,Overcast,200,2014-01-10 06:55:00
1:15 AM,21.2,18.5,89,30.07,7.0,Calm,Calm,-,N/A,,Overcast,0,2014-01-10 07:15:00
1:35 AM,21.7,19.6,91,30.06,7.0,Calm,Calm,-,N/A,,Overcast,0,2014-01-10 07:35:00
1:55 AM,22.5,20.3,91,30.06,5.0,SSW,3.5,-,N/A,,Overcast,210,2014-01-10 07:55:00
2:15 AM,22.6,20.7,92,30.05,5.0,Calm,Calm,-,N/A,,Overcast,0,2014-01-10 08:15:00
2:35 AM,22.8,20.8,92,30.05,5.0,South,3.5,-,N/A,,Overcast,190,2014-01-10 08:35:00
2:55 AM,23.0,20.8,91,30.05,5.0,South,3.5,-,N/A,,Overcast,190,2014-01-10 08:55:00
3:15 AM,23.0,20.8,91,30.05,5.0,South,3.5,-,N/A,,Overcast,190,2014-01-10 09:15:00
3:35 AM,23.0,20.8,91,30.04,5.0,Calm,Calm,-,N/A,,Overcast,0,2014-01-10 09:35:00
3:55 AM,23.0,21.0,92,30.03,5.0,Calm,Calm,-,N/A,,Overcast,0,2014-01-10 09:55:00
4:15 AM,23.4,21.0,91,30.03,5.0,Calm,Calm,-,N/A,,Overcast,0,2014-01-10 10:15:00
4:35 AM,23.4,21.0,91,30.02,5.0,Calm,Calm,-,N/A,,Overcast,0,2014-01-10 10:35:00
4:55 AM,23.5,21.2,91,30.02,5.0,South,3.5,-,N/A,,Overcast,190,2014-01-10 10:55:00
5:15 AM,23.5,21.2,91,30.01,5.0,South,4.6,-,N/A,,Overcast,180,2014-01-10 11:15:00
5:35 AM,23.5,21.2,91,30.01,5.0,South,4.6,-,N/A,,Overcast,180,2014-01-10 11:35:00
5:55 AM,23.7,21.2,90,30.00,5.0,South,4.6,-,N/A,,Overcast,180,2014-01-10 11:55:00
6:15 AM,23.7,21.2,90,30.00,5.0,South,4.6,-,N/A,,Overcast,170,2014-01-10 12:15:00
6:35 AM,23.7,21.2,90,29.99,5.0,South,3.5,-,N/A,,Overcast,190,2014-01-10 12:35:00
6:55 AM,23.9,21.6,91,29.99,5.0,South,4.6,-,N/A,,Overcast,190,2014-01-10 12:55:00
7:15 AM,24.1,21.7,91,29.98,5.0,South,5.8,-,N/A,,Overcast,180,2014-01-10 13:15:00
7:35 AM,24.4,21.9,90,29.98,4.0,South,5.8,-,N/A,,Overcast,180,2014-01-10 13:35:00
7:55 AM,24.4,22.1,91,29.97,4.0,SSE,5.8,-,N/A,,Overcast,160,2014-01-10 13:55:00
8:15 AM,24.6,22.1,90,29.97,4.0,South,4.6,-,N/A,,Overcast,180,2014-01-10 14:15:00
8:35 AM,24.8,22.5,91,29.97,4.0,South,5.8,-,N/A,,Overcast,180,2014-01-10 14:35:00
8:55 AM,25.3,22.6,89,29.98,4.0,South,4.6,-,N/A,,Overcast,180,2014-01-10 14:55:00
9:15 AM,26.6,23.0,86,29.97,4.0,South,8.1,-,N/A,,Overcast,180,2014-01-10 15:15:00
9:30 AM,26.4,23.0,87,29.97,4.0,South,8.1,-,N/A,,Overcast,170,2014-01-10 15:30:00
9:55 AM,27.1,23.7,87,29.96,4.0,South,8.1,-,N/A,,Overcast,180,2014-01-10 15:55:00
10:15 AM,27.5,23.9,86,29.96,4.0,South,8.1,-,N/A,,Overcast,180,2014-01-10 16:15:00
10:35 AM,27.5,24.3,88,29.94,4.0,South,8.1,-,N/A,,Overcast,180,2014-01-10 16:35:00
10:55 AM,27.9,24.8,88,29.92,4.0,SSE,5.8,-,N/A,,Overcast,160,2014-01-10 16:55:00
11:15 AM,28.2,24.8,87,29.91,4.0,South,6.9,-,N/A,,Overcast,170,2014-01-10 17:15:00
11:35 AM,28.4,25.2,88,29.90,4.0,SSW,10.4,-,N/A,,Overcast,200,2014-01-10 17:35:00
11:55 AM,28.4,25.3,88,29.88,4.0,South,5.8,17.3,N/A,,Overcast,190,2014-01-10 17:55:00
12:15 PM,29.1,25.7,87,29.86,4.0,South,8.1,-,N/A,,Overcast,190,2014-01-10 18:15:00
12:35 PM,29.3,26.2,88,29.85,4.0,South,5.8,-,N/A,,Overcast,170,2014-01-10 18:35:00
12:55 PM,29.3,26.6,90,29.84,3.0,South,6.9,-,N/A,,Overcast,180,2014-01-10 18:55:00
1:15 PM,29.7,26.6,88,29.82,4.0,South,5.8,-,N/A,,Overcast,190,2014-01-10 19:15:00
1:35 PM,29.7,26.6,88,29.81,5.0,South,5.8,-,N/A,,Overcast,180,2014-01-10 19:35:00
1:55 PM,30.0,26.6,87,29.80,5.0,South,6.9,-,N/A,,Overcast,170,2014-01-10 19:55:00
2:15 PM,30.0,27.0,88,29.79,5.0,SSE,5.8,-,N/A,,Overcast,160,2014-01-10 20:15:00
2:35 PM,30.0,27.5,90,29.79,4.0,SSE,4.6,-,N/A,,Overcast,160,2014-01-10 20:35:00
2:55 PM,30.0,28.4,94,29.78,4.0,SSE,8.1,-,N/A,,Overcast,150,2014-01-10 20:55:00
3:15 PM,30.2,28.8,94,29.77,5.0,SSE,6.9,-,N/A,,Overcast,150,2014-01-10 21:15:00
3:35 PM,30.2,29.1,96,29.76,4.0,SSE,4.6,-,N/A,,Overcast,160,2014-01-10 21:35:00
3:55 PM,30.6,29.1,94,29.74,5.0,SSE,4.6,-,N/A,,Overcast,150,2014-01-10 21:55:00
4:15 PM,30.9,29.3,94,29.73,4.0,SSE,3.5,-,N/A,,Overcast,150,2014-01-10 22:15:00
4:35 PM,30.7,29.8,96,29.72,4.0,SE,4.6,-,N/A,,Overcast,140,2014-01-10 22:35:00
4:55 PM,31.1,30.2,96,29.71,5.0,SE,5.8,-,N/A,,Overcast,140,2014-01-10 22:55:00
5:15 PM,31.6,30.9,97,29.70,5.0,SSE,4.6,-,N/A,,Overcast,150,2014-01-10 23:15:00
5:35 PM,32.0,31.5,98,29.68,4.0,SE,5.8,-,N/A,,Overcast,140,2014-01-10 23:35:00
5:55 PM,32.0,32.0,100,29.67,2.5,SE,5.8,-,N/A,,Overcast,140,2014-01-10 23:55:00
6:15 PM,32.5,32.0,98,29.64,3.0,SE,6.9,-,N/A,,Overcast,130,2014-01-11 00:15:00
6:35 PM,32.4,32.0,99,29.64,3.0,SSE,6.9,-,N/A,,Overcast,150,2014-01-11 00:35:00
6:55 PM,32.0,32.0,100,29.61,2.0,SE,9.2,-,0.02,,Overcast,130,2014-01-11 00:55:00
7:15 PM,32.4,32.0,99,29.59,4.0,SE,11.5,-,N/A,,Overcast,130,2014-01-11 01:15:00
7:35 PM,32.4,32.0,99,29.57,5.0,SE,11.5,-,0.01,,Overcast,130,2014-01-11 01:35:00
7:55 PM,32.7,32.2,98,29.56,4.0,ESE,8.1,-,0.03,,Overcast,120,2014-01-11 01:55:00
8:15 PM,32.5,32.2,99,29.56,4.0,ESE,3.5,-,0.01,,Overcast,110,2014-01-11 02:15:00
8:35 PM,32.2,32.0,99,29.54,3.0,Calm,Calm,-,0.03,,Overcast,0,2014-01-11 02:35:00
8:50 PM,32.0,32.0,100,29.52,3.0,Calm,Calm,-,0.03,,Overcast,0,2014-01-11 02:50:00
9:15 PM,32.0,32.0,100,29.51,3.0,Calm,Calm,-,N/A,,Overcast,0,2014-01-11 03:15:00
9:35 PM,32.0,32.0,100,29.49,3.0,ENE,3.5,-,0.01,,Overcast,70,2014-01-11 03:35:00
9:55 PM,32.0,32.0,100,29.48,4.0,Calm,Calm,-,0.02,,Overcast,0,2014-01-11 03:55:00
10:10 PM,32.0,32.0,100,29.47,3.0,Calm,Calm,-,0.01,,Overcast,0,2014-01-11 04:10:00
10:35 PM,32.0,32.0,100,29.46,3.0,Calm,Calm,-,0.02,,Overcast,0,2014-01-11 04:35:00
10:55 PM,32.0,32.0,100,29.45,2.0,Calm,Calm,-,0.03,,Overcast,0,2014-01-11 04:55:00
11:15 PM,32.0,32.0,100,29.43,2.5,Calm,Calm,-,0.01,,Overcast,0,2014-01-11 05:15:00
11:35 PM,32.0,32.0,100,29.42,2.0,SE,3.5,-,0.01,,Overcast,140,2014-01-11 05:35:00
11:55 PM,32.5,32.5,100,29.41,4.0,South,3.5,-,0.01,,Overcast,180,2014-01-11 05:55:00